GW4345 Weather Reports


time (UTC)temp
F
wind
direction
speed
knots
gust
knots
rain 1hr
in
rain 24hr
in
rain mn
in
humidity
%
barometer
mb
20260505211505 54 96 7.8 13.9 0.00 0.00 0.00 74 1013.9
20260505211012 54 106 7.8 12.2 0.00 0.00 0.00 75 1013.9
20260505210505 54 106 5.2 14.8 0.00 0.00 0.00 75 1013.9
20260505205504 55 92 10.4 15.6 0.00 0.00 0.00 72 1013.9
20260505205012 55 90 5.2 13.9 0.00 0.00 0.00 70 1013.9
20260505204012 55 91 7.0 12.2 0.00 0.00 0.00 65 1013.8
20260505203011 56 98 3.5 8.7 0.00 0.00 0.00 66 1013.7
20260505202504 56 114 3.5 10.4 0.00 0.00 0.00 66 1013.6
20260505202012 56 99 3.5 10.4 0.00 0.00 0.00 67 1013.7
20260505201505 56 98 5.2 8.7 0.00 0.00 0.00 67 1013.6
20260505201012 56 101 3.5 6.1 0.00 0.00 0.00 68 1013.6
20260505200505 56 112 3.5 7.0 0.00 0.00 0.00 67 1013.5
20260505200005 56 89 2.6 6.1 0.00 0.00 0.00 67 1013.4
20260505195011 56 97 2.6 5.2 0.00 0.00 0.00 66 1013.3
20260505194505 57 113 2.6 6.1 0.00 0.00 0.00 66 1013.3
20260505194012 57 71 1.7 7.0 0.00 0.00 0.00 66 1013.2
20260505193505 57 99 3.5 8.7 0.00 0.00 0.00 65 1013.1
20260505193012 57 90 4.3 7.8 0.00 0.00 0.00 65 1013.0
20260505192505 57 109 3.5 8.7 0.00 0.00 0.00 65 1013.0
20260505192011 57 118 4.3 10.4 0.00 0.00 0.00 65 1013.0
20260505191504 57 92 5.2 12.2 0.00 0.00 0.00 64 1013.0
20260505190005 58 97 0.0 1.7 0.00 0.00 0.00 64 1012.9
20260505185011 58 132 1.7 2.6 0.00 0.00 0.00 62 1012.8
20260505184505 58 104 1.7 2.6 0.00 0.00 0.00 62 1012.8
20260505184011 58 122 1.7 2.6 0.00 0.00 0.00 62 1012.7
20260505183505 58 134 1.7 2.6 0.00 0.00 0.00 62 1012.7
20260505183011 58 104 1.7 2.6 0.00 0.00 0.00 62 1012.6
20260505182504 58 111 0.0 2.6 0.00 0.00 0.00 62 1012.6
20260505182012 59 103 2.6 5.2 0.00 0.00 0.00 60 1012.6
20260505181505 59 171 1.7 2.6 0.00 0.00 0.00 60 1012.6
20260505181011 59 151 1.7 4.3 0.00 0.00 0.00 60 1012.6
20260505180004 59 94 1.7 2.6 0.00 0.00 0.00 60 1012.7
20260505175505 59 121 1.7 2.6 0.00 0.00 0.00 60 1012.7
20260505174504 59 152 2.6 5.2 0.00 0.00 0.00 59 1012.7
20260505174011 59 131 2.6 4.3 0.00 0.00 0.00 58 1012.6
20260505173011 59 121 2.6 6.1 0.00 0.00 0.00 57 1012.6
20260505172507 59 126 2.6 5.2 0.00 0.00 0.00 57 1012.6
20260505172011 60 160 0.9 5.2 0.00 0.00 0.00 56 1012.7
20260505171505 60 142 4.3 7.8 0.00 0.00 0.00 56 1012.6
20260505171011 60 134 3.5 7.0 0.00 0.00 0.00 56 1012.6
20260505170505 60 133 2.6 7.0 0.00 0.00 0.00 56 1012.7
20260505170004 60 137 2.6 7.8 0.00 0.00 0.00 55 1012.7
20260505165504 60 129 3.5 6.1 0.00 0.00 0.00 55 1012.7
20260505165011 60 135 4.3 7.8 0.00 0.00 0.00 55 1012.7
20260505164011 60 142 2.6 8.7 0.00 0.00 0.00 54 1012.7
20260505163505 60 187 4.3 10.4 0.00 0.00 0.00 54 1012.6
20260505163012 60 154 2.6 7.0 0.00 0.00 0.00 54 1012.7
20260505162504 61 158 2.6 6.1 0.00 0.00 0.00 54 1012.7
20260505162011 61 134 3.5 7.0 0.00 0.00 0.00 53 1012.6
20260505161505 61 103 5.2 8.7 0.00 0.00 0.00 52 1012.6
20260505161012 61 106 4.3 7.8 0.00 0.00 0.00 52 1012.6
20260505160505 61 103 2.6 6.1 0.00 0.00 0.00 53 1012.6
20260505152504 62 87 1.7 2.6 0.00 0.00 0.00 53 1012.7
20260505152011 62 107 1.7 5.2 0.00 0.00 0.00 52 1012.7
20260505151504 62 105 1.7 2.6 0.00 0.00 0.00 52 1012.7
20260505151011 62 136 3.5 6.1 0.00 0.00 0.00 51 1012.8
20260505150504 62 130 0.9 2.6 0.00 0.00 0.00 51 1012.8
20260505140504 63 24 0.9 2.6 0.00 0.00 0.00 50 1013.0
20260505124506 62 116 1.7 2.6 0.00 0.00 0.00 53 1013.4
20260505124013 62 86 4.3 7.8 0.00 0.00 0.00 52 1013.4
20260505123509 62 81 1.7 4.3 0.00 0.00 0.00 54 1013.4
20260505123012 62 138 1.7 4.3 0.00 0.00 0.00 54 1013.4
20260505122506 62 54 2.6 7.8 0.00 0.00 0.00 54 1013.4
20260505122013 63 89 4.3 10.4 0.00 0.00 0.00 52 1013.3
20260505121505 63 99 3.5 7.8 0.00 0.00 0.00 52 1013.3
20260505120506 63 63 4.3 10.4 0.00 0.00 0.00 53 1013.3
20260505120006 63 106 2.6 7.0 0.00 0.00 0.00 51 1013.4
20260505115506 62 132 1.7 7.8 0.00 0.00 0.00 53 1013.5
20260505115013 61 88 7.0 10.4 0.00 0.00 0.00 52 1013.5
20260505114505 62 124 2.6 6.1 0.00 0.00 0.00 54 1013.5
20260505114012 61 74 3.5 8.7 0.00 0.00 0.00 57 1013.5
20260505113506 61 60 2.6 8.7 0.00 0.00 0.00 57 1013.5
20260505113013 61 112 6.1 10.4 0.00 0.00 0.00 56 1013.5
20260505112506 61 82 1.7 6.1 0.00 0.00 0.00 57 1013.5
20260505111506 61 131 5.2 10.4 0.00 0.00 0.00 56 1013.7
20260505111012 61 54 1.7 5.2 0.00 0.00 0.00 58 1013.6
20260505110506 61 33 2.6 10.4 0.00 0.00 0.00 58 1013.6
20260505102013 60 83 4.3 10.4 0.00 0.00 0.00 60 1014.1
20260505101506 60 93 2.6 7.8 0.00 0.00 0.00 63 1014.1
20260505101013 59 94 0.9 4.3 0.00 0.00 0.00 63 1014.1
20260505100506 59 78 2.6 7.0 0.00 0.00 0.00 63 1014.1
20260505100006 59 41 2.6 7.8 0.00 0.00 0.00 63 1014.1
20260505095505 58 68 4.3 6.1 0.00 0.00 0.00 63 1014.1
20260505095012 58 54 2.6 7.8 0.00 0.00 0.00 63 1014.2
20260505094505 58 51 3.5 7.8 0.00 0.00 0.00 64 1014.2
20260505093506 58 50 1.7 6.1 0.00 0.00 0.00 68 1014.2
20260505093012 57 59 3.5 7.0 0.00 0.00 0.00 70 1014.2
20260505092506 57 38 2.6 5.2 0.00 0.00 0.00 71 1014.2
20260505092012 57 37 2.6 5.2 0.00 0.00 0.00 72 1014.2
20260505091505 56 111 2.6 7.0 0.00 0.00 0.00 73 1014.3
20260505091013 56 88 2.6 7.8 0.00 0.00 0.00 75 1014.4
20260505090506 55 59 2.6 5.2 0.00 0.00 0.00 75 1014.4
20260505090005 55 47 2.6 5.2 0.00 0.00 0.00 75 1014.4
20260505085505 55 64 1.7 5.2 0.00 0.00 0.00 77 1014.4
20260505085013 55 34 1.7 4.3 0.00 0.00 0.00 77 1014.5
20260505084505 54 25 2.6 6.1 0.00 0.00 0.00 77 1014.5
20260505084012 54 19 1.7 2.6 0.00 0.00 0.00 78 1014.5
20260505083506 54 55 2.6 7.8 0.00 0.00 0.00 77 1014.5
20260505083013 54 41 3.5 7.8 0.00 0.00 0.00 77 1014.6
20260505082505 54 61 0.9 2.6 0.00 0.00 0.00 78 1014.5
20260505082012 54 59 2.6 6.1 0.00 0.00 0.00 79 1014.5
20260505081012 54 82 2.6 7.8 0.00 0.00 0.00 78 1014.5
20260505080506 54 51 2.6 7.8 0.00 0.00 0.00 78 1014.4
20260505075013 53 62 3.5 8.7 0.00 0.00 0.00 79 1014.4
20260505074505 53 64 3.5 7.0 0.00 0.00 0.00 80 1014.3
20260505074012 53 100 2.6 7.0 0.00 0.00 0.00 81 1014.4
20260505073506 53 65 2.6 7.8 0.00 0.00 0.00 81 1014.4
20260505072506 53 69 1.7 5.2 0.00 0.00 0.00 81 1014.5
20260505071013 53 49 1.7 7.0 0.00 0.00 0.00 82 1014.5
20260505065508 52 60 1.7 6.1 0.00 0.00 0.00 82 1014.5
20260505065012 52 58 1.7 2.6 0.00 0.00 0.00 83 1014.6
20260505064505 52 57 0.9 2.6 0.00 0.00 0.00 83 1014.6
20260505063505 52 23 0.9 2.6 0.00 0.00 0.00 84 1014.6
20260505063012 52 39 0.9 4.3 0.00 0.00 0.00 84 1014.7
20260505062506 52 357 1.7 2.6 0.00 0.00 0.00 84 1014.6
20260505062013 52 46 1.7 2.6 0.00 0.00 0.00 84 1014.7
20260505061505 52 67 1.7 4.3 0.00 0.00 0.00 84 1014.6
20260505061013 52 71 0.0 5.2 0.00 0.00 0.00 84 1014.6
20260505060506 51 45 0.9 2.6 0.00 0.00 0.00 85 1014.6
20260505060006 51 75 0.0 1.7 0.00 0.00 0.00 85 1014.6
20260505055506 51 75 0.9 1.7 0.00 0.00 0.00 85 1014.6
20260505055012 51 65 0.9 2.6 0.00 0.00 0.00 85 1014.6
20260505054505 51 44 0.0 2.6 0.00 0.00 0.00 85 1014.7
20260505053505 51 57 0.9 2.6 0.00 0.00 0.00 86 1014.8
20260505052505 51 83 0.9 1.7 0.00 0.00 0.00 86 1014.8
20260505052012 51 83 0.0 0.9 0.00 0.00 0.00 86 1014.8
20260505051505 51 85 0.9 1.7 0.00 0.00 0.00 86 1014.9
20260505051012 51 67 0.0 0.9 0.00 0.00 0.00 86 1014.9
20260505050506 51 67 0.0 1.7 0.00 0.00 0.00 86 1014.9
20260505041505 51 84 0.9 2.6 0.00 0.00 0.00 85 1014.8
20260505041012 51 74 0.9 2.6 0.00 0.00 0.00 85 1014.8
20260505040506 51 84 1.7 2.6 0.00 0.00 0.00 85 1014.8
20260505040005 51 96 0.9 5.2 0.00 0.00 0.00 85 1014.8
20260505035012 51 96 2.6 6.1 0.00 0.00 0.00 85 1014.8
20260505034505 51 102 4.3 7.0 0.00 0.00 0.00 86 1014.9
20260505034012 52 92 1.7 6.1 0.00 0.00 0.00 86 1014.8
20260505033506 52 87 0.9 5.2 0.00 0.00 0.00 86 1014.8
20260505033012 52 72 0.9 7.0 0.00 0.00 0.00 86 1014.8
20260505032505 52 95 2.6 7.0 0.00 0.00 0.00 86 1014.9
20260505032011 52 72 0.9 6.1 0.00 0.00 0.00 86 1014.8
20260505031505 52 90 1.7 5.2 0.00 0.00 0.00 86 1014.9
20260505031012 52 104 3.5 7.0 0.00 0.00 0.00 86 1014.9
20260505030506 52 88 2.6 5.2 0.00 0.00 0.00 86 1014.9
20260505030005 52 107 1.7 5.2 0.00 0.00 0.00 86 1014.9
20260505024505 52 94 0.9 2.6 0.00 0.00 0.00 87 1014.9
20260505024012 52 113 0.9 4.3 0.00 0.00 0.00 86 1014.9
20260505023506 52 116 1.7 7.0 0.00 0.00 0.00 86 1014.9
20260505023012 52 110 1.7 6.1 0.00 0.00 0.00 86 1015.0
20260505022505 52 111 2.6 7.0 0.00 0.00 0.00 86 1015.1
20260505022012 52 79 2.6 6.1 0.00 0.00 0.00 87 1015.0
20260505021012 52 43 0.9 4.3 0.00 0.00 0.00 87 1014.9
20260505020505 53 41 0.9 4.3 0.00 0.00 0.00 88 1014.9
20260505020004 53 62 0.9 2.6 0.00 0.00 0.00 88 1015.0
20260505015505 53 79 2.6 6.1 0.00 0.00 0.00 88 1014.9
20260505015012 53 85 3.5 7.0 0.00 0.00 0.00 88 1014.9
20260505014505 53 87 2.6 7.8 0.00 0.00 0.00 88 1015.0
20260505014012 53 85 3.5 7.0 0.00 0.00 0.00 88 1015.1
20260505013505 53 94 0.9 2.6 0.00 0.00 0.00 88 1015.2
20260505013012 53 111 2.6 6.1 0.00 0.00 0.00 88 1015.2
20260505012505 53 114 2.6 5.2 0.00 0.00 0.00 87 1015.3
20260505012012 53 131 1.7 5.2 0.00 0.00 0.00 88 1015.3
20260505011505 53 117 2.6 6.1 0.00 0.00 0.00 87 1015.4
20260505011012 53 107 1.7 5.2 0.00 0.00 0.00 87 1015.4
20260505010505 53 106 2.6 5.2 0.00 0.00 0.00 87 1015.4
20260505010005 53 139 1.7 5.2 0.00 0.00 0.00 88 1015.4
20260505005505 53 155 3.5 6.1 0.00 0.00 0.00 87 1015.4
20260505004505 53 115 2.6 6.1 0.00 0.00 0.00 87 1015.3
20260505004011 54 129 2.6 6.1 0.00 0.00 0.00 86 1015.4
20260505002505 54 117 2.6 7.0 0.00 0.00 0.00 85 1015.5
20260505002012 54 143 1.7 7.0 0.00 0.00 0.00 85 1015.5
20260505001505 54 111 2.6 6.1 0.00 0.00 0.00 84 1015.6
20260505001012 54 134 4.3 12.2 0.00 0.00 0.00 83 1015.6
20260505000505 54 107 4.3 7.0 0.00 0.00 0.00 81 1015.5
20260505000005 54 86 2.6 6.1 0.00 0.00 0.00 81 1015.6
20260504235505 54 85 3.5 7.8 0.00 0.00 0.00 81 1015.6
20260504235012 54 94 4.3 7.0 0.00 0.00 0.00 81 1015.7
20260504234505 54 96 1.7 7.8 0.00 0.00 0.00 81 1015.9
20260504234012 54 85 2.6 4.3 0.00 0.00 0.00 81 1015.9
20260504233505 54 94 2.6 7.8 0.00 0.00 0.00 80 1015.9
20260504233011 54 62 0.9 4.3 0.00 0.00 0.00 80 1015.9
20260504232505 54 72 1.7 5.2 0.00 0.00 0.00 80 1015.9
20260504232012 54 84 2.6 6.1 0.00 0.00 0.00 80 1015.8
20260504231505 54 57 1.7 2.6 0.00 0.00 0.00 80 1015.9
20260504230505 54 72 1.7 5.2 0.00 0.00 0.00 80 1015.9
20260504230005 54 43 1.7 2.6 0.00 0.00 0.00 80 1015.9
20260504225520 54 74 1.7 7.0 0.00 0.00 0.00 80 1015.9
20260504225012 54 63 2.6 7.0 0.00 0.00 0.00 80 1015.9
20260504224505 54 92 0.9 5.2 0.00 0.00 0.00 80 1015.9
20260504224012 54 83 2.6 7.0 0.00 0.00 0.00 80 1015.9
20260504223012 54 50 1.7 4.3 0.00 0.00 0.00 80 1016.0
20260504222505 54 63 2.6 8.7 0.00 0.00 0.00 80 1016.0
20260504222012 55 47 1.7 10.4 0.00 0.00 0.00 80 1016.1
20260504221012 55 56 2.6 5.2 0.00 0.00 0.00 80 1016.1
20260504220520 55 50 2.6 7.8 0.00 0.00 0.00 80 1016.1
20260504220005 55 59 0.9 5.2 0.00 0.00 0.00 80 1016.2
20260504215505 55 52 2.6 6.1 0.00 0.00 0.00 79 1016.1
20260504215012 55 36 2.6 7.8 0.00 0.00 0.00 79 1016.1
20260504214505 55 40 3.5 7.8 0.00 0.00 0.00 79 1016.1
20260504214012 55 43 3.5 8.7 0.00 0.00 0.00 79 1016.1
20260504213505 55 42 1.7 7.8 0.00 0.00 0.00 79 1016.0
20260504213012 55 56 1.7 4.3 0.00 0.00 0.00 79 1016.0
20260504212505 55 68 1.7 6.1 0.00 0.00 0.00 79 1016.0
20260504212012 56 55 3.5 6.1 0.00 0.00 0.00 78 1015.9